Location: Newark
(46.1292°N, 1.0086°W)
Time: 04:31:21
(UTC+00:00)

A-11 Canister half - All Passes

Search period start: 19 November 2019 00:00
Search period end: 29 November 2019 00:00
Orbit: 1514 x 1686 km, 47.2° (Epoch: 18 November)

Date Brightness Start Highest point End Pass type
(mag) Time Alt. Az. Time Alt. Az. Time Alt. Az.
19 Nov - 00:40:56 10° WNW 00:50:03 40° SW 00:58:55 10° SSE night (unlit)
19 Nov - 16:00:50 10° S 16:08:37 27° SE 16:16:31 10° E daylight
19 Nov - 18:02:24 10° SW 18:12:20 66° SSE 18:22:24 10° ENE visible
19 Nov - 20:07:10 10° W 20:17:26 85° N 20:27:38 10° E visible
19 Nov - 22:12:34 10° WNW 22:22:49 83° SSW 22:32:50 10° ESE visible
20 Nov - 00:17:55 10° WNW 00:27:10 42° SW 00:36:12 10° SSE night (unlit)
20 Nov - 02:27:31 10° WSW 02:29:57 11° WSW 02:32:24 10° SW night (unlit)
20 Nov - 15:38:17 10° S 15:45:47 25° SE 15:53:24 10° E daylight
20 Nov - 17:39:32 10° SW 17:49:25 64° SSE 17:59:26 10° ENE visible
20 Nov - 19:44:12 10° W 19:54:26 86° N 20:04:40 10° E visible
20 Nov - 21:49:36 10° WNW 21:59:51 85° SSW 22:09:55 10° ESE visible
20 Nov - 23:54:54 10° WNW 00:04:17 45° SW 00:13:27 10° SSE visible
21 Nov - 02:03:34 10° W 02:07:10 12° WSW 02:10:45 10° SW night (unlit)
21 Nov - 15:15:45 10° S 15:22:58 23° SE 15:30:17 10° E daylight
21 Nov - 17:16:41 10° SW 17:26:30 61° SSE 17:36:27 10° ENE visible
21 Nov - 19:21:15 10° W 19:31:28 87° N 19:41:42 10° E visible
21 Nov - 21:26:38 10° WNW 21:36:53 86° SSW 21:46:59 10° ESE visible
21 Nov - 23:31:55 10° WNW 23:41:25 47° SW 23:50:42 10° SSE visible
22 Nov - 01:39:57 10° W 01:44:23 14° WSW 01:48:47 10° SSW night (unlit)
22 Nov - 14:53:15 10° S 15:00:08 22° SE 15:07:07 10° E daylight
22 Nov - 16:53:50 10° SW 17:03:35 59° SSE 17:13:29 10° ENE visible
22 Nov - 18:58:17 10° W 19:08:29 87° N 19:18:43 10° E visible
22 Nov - 21:03:40 10° WNW 21:13:55 88° SSW 21:24:03 10° ESE visible
22 Nov - 23:08:55 10° WNW 23:18:31 49° SW 23:27:55 10° SSE visible
23 Nov - 01:16:29 10° W 01:21:35 15° WSW 01:26:38 10° SSW night (unlit)
23 Nov - 14:30:48 10° SSE 14:37:19 20° SE 14:43:55 10° E daylight
23 Nov - 16:31:01 10° SW 16:40:40 57° SE 16:50:31 10° ENE daylight
23 Nov - 18:35:19 10° WSW 18:45:30 88° NNW 18:55:46 10° E visible
23 Nov - 20:40:41 10° WNW 20:50:57 89° SSW 21:01:07 10° ESE visible
23 Nov - 22:45:56 10° WNW 22:55:38 52° SW 23:05:07 10° SE visible
24 Nov - 00:53:08 10° W 00:58:47 17° SW 01:04:24 10° SSW night (unlit)
24 Nov - 14:08:24 10° SSE 14:14:30 18° SE 14:20:42 10° E daylight
24 Nov - 16:08:12 10° SW 16:17:46 54° SE 16:27:33 10° ENE daylight
24 Nov - 18:12:22 10° WSW 18:22:32 89° N 18:32:47 10° E visible
24 Nov - 20:17:43 10° W 20:27:58 90° N 20:38:09 10° ESE visible
24 Nov - 22:22:57 10° WNW 22:32:44 54° SW 22:42:19 10° SE visible
25 Nov - 00:29:50 10° W 00:35:59 18° SW 00:42:03 10° SSW night (unlit)
25 Nov - 13:46:04 10° SSE 13:51:42 17° SE 13:57:24 10° E daylight
25 Nov - 15:45:23 10° SW 15:54:52 52° SE 16:04:33 10° ENE daylight
25 Nov - 17:49:25 10° WSW 17:59:33 89° SSE 18:09:49 10° ENE visible
25 Nov - 19:54:45 10° W 20:05:00 88° NNE 20:15:12 10° ESE visible
25 Nov - 21:59:58 10° WNW 22:09:49 56° SW 22:19:30 10° SE visible
26 Nov - 00:06:36 10° W 00:13:10 20° SW 00:19:40 10° SSW night (unlit)
26 Nov - 13:23:49 10° SSE 13:28:54 15° ESE 13:34:03 10° E daylight
26 Nov - 15:22:36 10° SSW 15:31:58 49° SE 15:41:33 10° ENE daylight
26 Nov - 17:26:29 10° WSW 17:36:35 88° SSE 17:46:50 10° ENE visible
26 Nov - 19:31:47 10° W 19:42:01 88° N 19:52:14 10° E visible
26 Nov - 21:37:00 10° WNW 21:46:55 59° SSW 21:56:40 10° SE visible
26 Nov - 23:43:24 10° W 23:50:21 21° SW 23:57:14 10° S visible
27 Nov - 13:01:39 10° SSE 13:06:06 14° ESE 13:10:37 10° E daylight
27 Nov - 14:59:50 10° SSW 15:09:05 47° SE 15:18:34 10° ENE daylight
27 Nov - 17:03:33 10° WSW 17:13:37 87° SSE 17:23:52 10° ENE visible
27 Nov - 19:08:49 10° W 19:19:02 87° N 19:29:16 10° E visible
27 Nov - 21:14:02 10° WNW 21:23:59 61° SSW 21:33:49 10° SE visible
27 Nov - 23:20:14 10° W 23:27:31 23° SW 23:34:44 10° S visible
28 Nov - 12:39:40 10° SE 12:43:19 13° ESE 12:47:01 10° E daylight
28 Nov - 14:37:04 10° SSW 14:46:12 45° SE 14:55:35 10° ENE daylight
28 Nov - 16:40:37 10° WSW 16:50:39 85° SSE 17:00:54 10° ENE visible
28 Nov - 18:45:52 10° W 18:56:03 86° N 19:06:18 10° E visible
28 Nov - 20:51:05 10° WNW 21:01:04 63° SSW 21:10:58 10° SE visible
28 Nov - 22:57:06 10° W 23:04:42 25° SW 23:12:12 10° S visible
